Weather History for Palestine, TX

Change the Weather History Date:

Saturday, June 29, 2013

  Actual Average (KTYR) Record (KTYR)
Temperature  
Mean Temperature 85 °F 81 °F  
Max Temperature 100 °F 90 °F 103 °F (1930)
Min Temperature 70 °F 73 °F 59 °F (1985)
Degree Days  
Heating Degree Days 0 0  
Month to date heating degree days 0  
Since 1 June heating degree days 0  
Since 1 July heating degree days 2269  
Cooling Degree Days 20 16  
Month to date cooling degree days 416  
Year to date cooling degree days 785  
Since 1 June cooling degree days 416  
Growing Degree Days 35 (Base 50)    
Moisture  
Dew Point 62 °F    
Average Humidity 47    
Maximum Humidity 87    
Minimum Humidity 22    
Precipitation  
Precipitation 0.00 in 0.15 in 2.58 in (1983)
Month to date precipitation 4.69  
Year to date precipitation 23.62  
Snow  
Snow 0.00 in - - ()
Month to date snowfall  
Since 1 June snowfall  
Since 1 July snowfall  
Snow Depth -    
Sea Level Pressure  
Sea Level Pressure 29.85 in    
Wind  
Wind Speed 5 mph (NNW)    
Max Wind Speed 15 mph    
Max Gust Speed 23 mph    
Visibility 10 miles    
Events      
T = Trace of Precipitation, MM = Missing Value Source: NWS Daily Summary

Daily Weather History Graph

Daily Weather History Graph

Search for Another Location

Airport:

Trip Planner

Search our weather history database for the weather conditions in past years. The results will help you decide how hot, cold, wet, or windy it might be!

Date:

Astronomy

Jun. 29, 2013 Rise Set
Actual Time 6:20 AM CDT 8:32 PM CDT
Civil Twilight 5:52 AM CDT 9:00 PM CDT
Nautical Twilight 5:17 AM CDT 9:34 PM CDT
Astronomical Twilight 4:40 AM CDT 10:11 PM CDT
Moon 12:27 AM CDT (6/29) 1:05 PM CDT (6/29)
Length of Visible Light 15h 08m
Length of Day
14h 12m
Waning Gibbous, 55% of the Moon is Illuminated
Jun 29
Waning Gibbous
Jun 29
Last Quarter
Jul 8
New
Jul 15
First Quarter
Jul 22
Full

Hourly Weather History & Observations

Time (CDT) Temp. Heat Index Dew Point Humidity Pressure Visibility Wind Dir Wind Speed Gust Speed Precip Events Conditions
12:15 AM 83.8 °F 86.5 °F 67.1 °F 57% 29.85 in 10.0 mi North 4.6 mph - N/A   Clear
12:35 AM 86.0 °F 88.2 °F 66.2 °F 51% 29.85 in 10.0 mi North 4.6 mph - N/A   Clear
12:55 AM 85.6 °F 87.9 °F 66.2 °F 52% 29.85 in 10.0 mi NNE 5.8 mph - N/A   Clear
1:15 AM 84.6 °F 86.8 °F 66.2 °F 54% 29.85 in 10.0 mi NNE 3.5 mph - N/A   Clear
1:35 AM 84.2 °F 86.3 °F 65.8 °F 54% 29.85 in 10.0 mi NNE 3.5 mph - N/A   Clear
1:55 AM 82.9 °F 85.0 °F 65.7 °F 56% 29.86 in 10.0 mi Calm Calm - N/A   Clear
2:15 AM 81.7 °F 83.6 °F 65.7 °F 58% 29.86 in 10.0 mi Calm Calm - N/A   Clear
2:35 AM 81.9 °F 83.7 °F 65.3 °F 57% 29.86 in 10.0 mi Calm Calm - N/A   Clear
2:55 AM 81.7 °F 83.5 °F 64.9 °F 57% 29.86 in 10.0 mi NE 3.5 mph - N/A   Clear
3:15 AM 81.3 °F 83.0 °F 64.9 °F 57% 29.85 in 10.0 mi NNE 4.6 mph - N/A   Clear
3:35 AM 80.6 °F 82.3 °F 64.6 °F 58% 29.85 in 10.0 mi North 4.6 mph - N/A   Clear
3:55 AM 77.9 °F - 65.3 °F 65% 29.85 in 10.0 mi North 3.5 mph - N/A   Clear
4:15 AM 78.4 °F - 65.3 °F 64% 29.85 in 10.0 mi Calm Calm - N/A   Clear
4:35 AM 75.4 °F - 65.5 °F 71% 29.85 in 10.0 mi Calm Calm - N/A   Clear
4:55 AM 72.7 °F - 65.5 °F 78% 29.86 in 10.0 mi Calm Calm - N/A   Clear
5:15 AM 72.9 °F - 65.3 °F 77% 29.86 in 10.0 mi Calm Calm - N/A   Clear
5:35 AM 72.0 °F - 66.2 °F 82% 29.86 in 10.0 mi Calm Calm - N/A   Clear
5:55 AM 70.7 °F - 66.0 °F 85% 29.86 in 10.0 mi Calm Calm - N/A   Clear
6:15 AM 70.7 °F - 66.6 °F 87% 29.86 in 10.0 mi Calm Calm - N/A   Clear
6:35 AM 70.2 °F - 66.0 °F 87% 29.87 in 10.0 mi Calm Calm - N/A   Clear
6:55 AM 71.2 °F - 66.2 °F 84% 29.87 in 10.0 mi Calm Calm - N/A   Clear
7:15 AM 72.9 °F - 66.9 °F 82% 29.87 in 10.0 mi Calm Calm - N/A   Clear
7:35 AM 75.7 °F - 66.7 °F 74% 29.87 in 10.0 mi NW 3.5 mph - N/A   Clear
7:55 AM 77.4 °F - 67.1 °F 71% 29.87 in 10.0 mi Calm Calm - N/A   Clear
8:15 AM 79.9 °F - 67.3 °F 65% 29.87 in 10.0 mi Calm Calm - N/A   Clear
8:35 AM 82.9 °F 85.2 °F 66.2 °F 57% 29.87 in 10.0 mi North 3.5 mph - N/A   Clear
8:55 AM 86.2 °F 87.9 °F 65.1 °F 49% 29.87 in 10.0 mi NNW 3.5 mph - N/A   Clear
9:15 AM 87.6 °F 89.7 °F 65.8 °F 48% 29.87 in 10.0 mi North 3.5 mph - N/A   Clear
9:35 AM 89.6 °F 91.5 °F 64.9 °F 44% 29.87 in 10.0 mi NNE 4.6 mph - N/A   Clear
9:55 AM 91.8 °F 93.8 °F 64.9 °F 41% 29.87 in 10.0 mi NNW 8.1 mph - N/A   Clear
10:15 AM 92.8 °F 94.3 °F 63.9 °F 38% 29.87 in 10.0 mi NNW 10.4 mph - N/A   Clear
10:35 AM 93.4 °F 95.6 °F 64.8 °F 39% 29.87 in 10.0 mi NW 8.1 mph - N/A   Clear
10:55 AM 93.7 °F 95.8 °F 64.2 °F 38% 29.87 in 10.0 mi WNW 8.1 mph - N/A   Clear
11:15 AM 94.8 °F 95.8 °F 62.8 °F 34% 29.87 in 10.0 mi North 9.2 mph - N/A   Clear
11:35 AM 96.1 °F 97.3 °F 62.8 °F 33% 29.88 in 10.0 mi NNW 9.2 mph - N/A   Clear
11:55 AM 96.3 °F 97.6 °F 63.0 °F 33% 29.88 in 10.0 mi WNW 8.1 mph 16.1 mph N/A   Clear
12:15 PM 96.4 °F 97.9 °F 63.3 °F 33% 29.87 in 10.0 mi WNW 9.2 mph - N/A   Clear
12:35 PM 97.5 °F 99.2 °F 63.5 °F 32% 29.86 in 10.0 mi North 11.5 mph 17.3 mph N/A   Clear
12:55 PM 98.6 °F 101.0 °F 63.7 °F 32% 29.86 in 10.0 mi NNW 9.2 mph 19.6 mph N/A   Clear
1:15 PM 99.1 °F 101.4 °F 63.9 °F 31% 29.86 in 10.0 mi NNW 15.0 mph 20.7 mph N/A   Clear
1:35 PM 99.3 °F 101.7 °F 63.7 °F 31% 29.86 in 10.0 mi NNW 15.0 mph 23.0 mph N/A   Clear
1:55 PM 99.5 °F 102.0 °F 63.5 °F 31% 29.85 in 10.0 mi WNW 13.8 mph 23.0 mph N/A   Clear
2:15 PM 99.3 °F 101.7 °F 63.7 °F 31% 29.85 in 10.0 mi NW 12.7 mph 21.9 mph N/A   Clear
2:35 PM 100.0 °F 101.8 °F 62.4 °F 29% 29.84 in 10.0 mi NNW 9.2 mph 20.7 mph N/A   Clear
2:55 PM 99.5 °F 99.9 °F 59.7 °F 27% 29.84 in 10.0 mi NNW 15.0 mph 19.6 mph N/A   Clear
3:15 PM 99.9 °F 99.9 °F 58.8 °F 26% 29.83 in 10.0 mi NNW 10.4 mph 20.7 mph N/A   Clear
3:35 PM 100.2 °F 100.0 °F 58.6 °F 25% 29.82 in 10.0 mi NW 10.4 mph - N/A   Clear
3:55 PM 100.9 °F 100.0 °F 56.8 °F 23% 29.82 in 10.0 mi NNW 15.0 mph 21.9 mph N/A   Clear
4:15 PM 100.6 °F 99.1 °F 55.6 °F 22% 29.81 in 10.0 mi NW 11.5 mph 18.4 mph N/A   Clear
4:35 PM 99.5 °F 98.0 °F 55.9 °F 23% 29.81 in 10.0 mi North 12.7 mph 20.7 mph N/A   Clear
4:55 PM 99.3 °F 97.8 °F 55.0 °F 23% 29.81 in 10.0 mi NW 12.7 mph 23.0 mph N/A   Clear
5:15 PM 98.6 °F 96.4 °F 53.1 °F 22% 29.81 in 10.0 mi NNW 11.5 mph - N/A   Clear
5:35 PM 98.6 °F 96.4 °F 53.1 °F 22% 29.80 in 10.0 mi North 10.4 mph 19.6 mph N/A   Clear
5:55 PM 97.7 °F 95.9 °F 55.2 °F 24% 29.80 in 10.0 mi NNW 15.0 mph 18.4 mph N/A   Clear
6:15 PM 97.0 °F 95.3 °F 55.8 °F 25% 29.79 in 10.0 mi North 13.8 mph 19.6 mph N/A   Clear
6:35 PM 96.3 °F 94.4 °F 54.7 °F 25% 29.79 in 10.0 mi NNW 9.2 mph - N/A   Clear
6:55 PM 95.2 °F 93.9 °F 57.0 °F 28% 29.80 in 10.0 mi North 10.4 mph - N/A   Clear
7:15 PM 94.1 °F 92.5 °F 56.7 °F 28% 29.80 in 10.0 mi North 8.1 mph - N/A   Clear
7:35 PM 93.0 °F 91.7 °F 56.8 °F 30% 29.80 in 10.0 mi NNE 8.1 mph - N/A   Clear
7:55 PM 91.6 °F 90.1 °F 57.0 °F 31% 29.80 in 10.0 mi North 8.1 mph - N/A   Clear
8:15 PM 89.6 °F 88.1 °F 57.2 °F 33% 29.81 in 10.0 mi North 5.8 mph - N/A   Clear
8:35 PM 86.5 °F 85.4 °F 57.7 °F 37% 29.81 in 10.0 mi North 3.5 mph - N/A   Clear
8:55 PM 85.6 °F 84.8 °F 58.1 °F 39% 29.82 in 10.0 mi North 3.5 mph - N/A   Clear
9:15 PM 84.9 °F 84.2 °F 58.3 °F 40% 29.82 in 10.0 mi Calm Calm - N/A   Clear
9:35 PM 84.2 °F 83.8 °F 58.8 °F 42% 29.83 in 10.0 mi North 3.5 mph - N/A   Clear
9:55 PM 83.7 °F 83.4 °F 59.0 °F 43% 29.83 in 10.0 mi NNW 3.5 mph - N/A   Clear
10:15 PM 79.3 °F - 60.1 °F 52% 29.84 in 10.0 mi NNW 3.5 mph - N/A   Clear
10:35 PM 79.7 °F - 60.3 °F 51% 29.85 in 10.0 mi NNW 4.6 mph - N/A   Clear
10:55 PM 79.0 °F - 60.8 °F 54% 29.85 in 10.0 mi NNW 4.6 mph - N/A   Clear
11:15 PM 77.9 °F - 60.8 °F 56% 29.85 in 10.0 mi NNW 5.8 mph - N/A   Clear
11:35 PM 76.8 °F - 61.2 °F 58% 29.85 in 10.0 mi Calm Calm - N/A   Clear
11:55 PM 78.4 °F - 59.9 °F 53% 29.86 in 10.0 mi Calm Calm - N/A   Clear